Regional Weather Roundup
Issued by NWS Newport/Morehead, NC

Current Version | Previous Version | Text Only | Print | Product List | Glossary On
Versions: 1 2 3 4 5 6 7 8 9 10 11 12 13 14 15 16 17 18 19 20 21 22 23 24 25 26 27 28 29 30 31 32 33 34 35 36 37 38 39 40 41 42 43 44 45 46 47 48 49 50
837 ASUS42 KMHX 200114 RWRMHX WEATHER ROUNDUP FOR EASTERN NORTH CAROLINA NATIONAL WEATHER SERVICE NEWPORT/MOREHEAD CITY NC 900 PM EDT SAT AUG 19 2017 NOTE: "FAIR" INDICATES FEW OR NO CLOUDS BELOW 12,000 FEET WITH NO SIGNIFICANT WEATHER AND/OR OBSTRUCTIONS TO VISIBILITY NCZ015>017-031-032-045>047-102-103-200200- NORTH COAST CITY SKY/WX TMP DP RH WIND PRES REMARKS EDENTON MOCLDY 81 74 78 CALM 29.95R ELIZABETH CITY CLOUDY 78 77 96 W5 29.96R KITTY HAWK CLOUDY 73 72 96 CALM 29.94S MANTEO CLOUDY 76 74 94 CALM 29.96R $$ NCZ045>047-081-094-103-104-200200- CENTRAL COAST CITY SKY/WX TMP DP RH WIND PRES REMARKS FRISCO MOCLDY 79 76 90 SW6 29.96R $$ NCZ095-097-098-100-101-200200- SOUTHERN COAST CITY SKY/WX TMP DP RH WIND PRES REMARKS BEAUFORT PTCLDY 78 78 100 SE3 29.96R CEDAR ISLAND NOT AVBL JACKSONVILLE PTCLDY 76 76 100 CALM 29.96R PINEY ISLAND CLOUDY N/A N/A N/A S6 29.95R WILMINGTON CLEAR 76 75 97 CALM 29.96R $$ NCZ011>013-027>030-043-044-078>080-089-090>093-098-200200- COASTAL PLAIN CITY SKY/WX TMP DP RH WIND PRES REMARKS AHOSKIE N/A 78 76 94 CALM 29.94R CLINTON CLEAR 77 76 95 CALM 29.96R ELIZABETHTOWN NOT AVBL GOLDSBORO PTCLDY 78 78 100 S2 29.95R GREENVILLE MOCLDY 79 73 83 SW6 29.98R HAVELOCK PTCLDY 76 73 91 SW3 29.98R KENANSVILLE PTCLDY 75 73 94 CALM 29.96R KINSTON NOT AVBL NEW BERN CLOUDY 75 75 100 W3 29.98R RICHLANDS CLEAR 74 74 100 CALM 29.97R ROCKY MOUNT CLEAR 76 74 93 CALM 29.95R WASHINGTON MOCLDY 76 73 90 SW5 29.96R WHITEVILLE PTCLDY 76 75 96 CALM 29.95R $$ AMZ130-135-150-152-154-156-158-170-250-252-270-ANZ085-086-088-633-658-670-200200- MARINE OBSERVATIONS STATION/POSITION TIME TEMP WIND PRES WAVE SWELL AIR SEA DIR/SP/G HT/PER HT/PER (UTC) (F) (DEG/KT/KT) (MB) (FT/S) (FT/S) CHESAPEAKE LIGHT NOT AVBL 64 E VA BEACH 0050 78 79 CALM / 2 1014.1 3/ 7 3/ 7 DUCK 0048 80 78 210/ 9/ 10 1013.5 2 E DUCK 0100 79 N/A 2/ 9 OREGON INLET 0048 360/ 3/ 4 1014.3 13E OREGON INLT 0048 80 N/A 3/ 6 3/ 6 HATTERAS CG 0048 79 83 220/ 7/ 10 1014.3 DIAMOND BUOY 0050 82 83 250/ 6/ 8 1013.9 3/ 9 3/ 9 CAPE LOOKOUT 0000 80 120/ 11/ 11 1013.8 BEAUFORT LAB 0048 80 82 150/ 7/ 7 1013.9 30 SE NEW RVR IN 0008 79 84 220/ 8/ 12 1014.2 30 SE NEW RVR IN 0043 84 N/A 3/ 6 27 SE WRIGHTSVLE 0008 81 84 170/ 6/ 10 1014.1 5 SE WRIGHTSVLE 0008 80 83 200/ 4/ 8 1013.8 225 S CAPE HAT 0050 84 85 200/ 8/ 10 1017.0 4/ 8 3/ 8 41 SE CHARLESTON 0050 83 85 200/ 12/ 14 1013.8 3/ 9 2/ 9 $$

USA.gov is the U.S. government's official web portal to all federal, state and local government web resources and services.